DW5656 Weather Reports


Display with metric or nautical units.
time (UTC)temp
F
wind
direction
speed
MPH
gust
MPH
rain 1hr
in
rain 24hr
in
rain mn
in
humidity
%
barometer
mb
20191113053741 59 230 7.0 13.0 0.00 0.00 0.00 83 1013.3
20191113052841 59 231 6.0 15.0 0.00 0.00 0.00 83 1013.2
20191113051941 59 221 6.0 12.0 0.00 0.00 0.00 83 1013.3
20191113051041 59 222 5.0 12.0 0.00 0.00 0.00 83 1013.4
20191113050141 59 226 5.0 11.0 0.00 0.00 0.00 82 1013.5
20191113045241 58 231 5.0 11.0 0.00 0.00 0.00 82 1013.6
20191113044341 58 233 5.0 10.0 0.00 0.00 0.00 82 1013.7
20191113043440 58 237 6.0 14.0 0.00 0.00 0.00 82 1013.6
20191113042541 58 237 6.0 11.0 0.00 0.00 0.00 82 1013.7
20191113041640 58 238 6.0 12.0 0.00 0.00 0.00 82 1013.7
20191113040740 58 231 6.0 10.0 0.00 0.00 0.00 82 1013.8
20191113035840 58 232 6.0 12.0 0.00 0.00 0.00 82 1013.9
20191113034940 58 235 7.0 12.0 0.00 0.00 0.00 81 1013.9
20191113034041 58 231 6.0 15.0 0.00 0.00 0.00 81 1013.9
20191113033140 58 234 7.0 11.0 0.00 0.00 0.00 80 1013.9
20191113032240 58 232 8.0 14.0 0.00 0.00 0.00 80 1013.9
20191113031340 58 233 6.0 13.0 0.00 0.00 0.00 79 1013.9
20191113030440 58 230 6.0 12.0 0.00 0.00 0.00 79 1014.0
20191113025540 58 231 7.0 13.0 0.00 0.00 0.00 79 1013.9
20191113024640 58 237 6.0 14.0 0.00 0.00 0.00 78 1014.1
20191113023740 58 233 7.0 14.0 0.00 0.00 0.00 78 1014.1
20191113022840 58 233 6.0 15.0 0.00 0.00 0.00 78 1014.1
20191113021940 58 241 6.0 14.0 0.00 0.00 0.00 78 1014.2
20191113021040 58 246 6.0 12.0 0.00 0.00 0.00 77 1014.3
20191113020140 58 246 6.0 17.0 0.00 0.00 0.00 77 1014.2
20191113015240 57 251 5.0 12.0 0.00 0.00 0.00 77 1014.4
20191113014340 57 243 5.0 10.0 0.00 0.00 0.00 76 1014.4
20191113013440 57 240 5.0 11.0 0.00 0.00 0.00 76 1014.3
20191113012540 57 231 5.0 12.0 0.00 0.00 0.00 75 1014.5
20191113011640 58 228 6.0 11.0 0.00 0.00 0.00 75 1014.5
20191113010740 58 233 6.0 12.0 0.00 0.00 0.00 74 1014.5
20191113005840 58 231 7.0 15.0 0.00 0.00 0.00 73 1014.6
20191113004940 59 233 6.0 15.0 0.00 0.00 0.00 72 1014.7
20191113004040 59 232 6.0 11.0 0.00 0.00 0.00 72 1014.8
20191113003140 59 238 6.0 10.0 0.00 0.00 0.00 72 1014.9
20191113002240 59 258 6.0 13.0 0.00 0.00 0.00 72 1014.9
20191113001340 60 262 6.0 12.0 0.00 0.00 0.00 72 1015.1
20191113000440 60 260 6.0 14.0 0.00 0.00 0.00 71 1015.3
20191112235540 60 260 6.0 13.0 0.00 0.00 0.00 71 1015.2
20191112234640 60 264 5.0 11.0 0.00 0.00 0.00 71 1015.2
20191112233740 60 262 6.0 12.0 0.00 0.00 0.00 70 1015.2
20191112232840 60 262 6.0 14.0 0.00 0.00 0.00 70 1015.4
20191112231940 60 257 6.0 15.0 0.00 0.00 0.00 69 1015.5
20191112231040 60 261 4.0 10.0 0.00 0.00 0.00 69 1015.5
20191112230140 60 264 5.0 12.0 0.00 0.00 0.00 68 1015.4
20191112225240 59 270 4.0 11.0 0.00 0.00 0.00 68 1015.7
20191112224340 59 258 3.0 6.0 0.00 0.00 0.00 67 1015.6
20191112223440 59 226 3.0 7.0 0.00 0.00 0.00 67 1015.5
20191112222540 60 215 3.0 5.0 0.00 0.00 0.00 66 1015.4
20191112221640 60 222 3.0 7.0 0.00 0.00 0.00 65 1015.2
20191112220740 60 253 1.0 7.0 0.00 0.00 0.00 65 1015.3
20191112215840 60 289 1.0 4.0 0.00 0.00 0.00 64 1015.4
20191112214940 60 275 1.0 3.0 0.00 0.00 0.00 63 1015.4
20191112214040 61 290 2.0 6.0 0.00 0.00 0.00 62 1015.4
20191112213140 61 287 2.0 6.0 0.00 0.00 0.00 62 1015.4
20191112212240 61 295 2.0 5.0 0.00 0.00 0.00 61 1015.5
20191112211340 61 274 2.0 8.0 0.00 0.00 0.00 60 1015.4
20191112210440 61 305 4.0 5.0 0.00 0.00 0.00 59 1015.3
20191112205539 61 314 5.0 11.0 0.00 0.00 0.00 58 1015.3
20191112204639 61 314 3.0 10.0 0.00 0.00 0.00 57 1015.2
20191112203739 62 304 2.0 8.0 0.00 0.00 0.00 56 1015.2
20191112202839 62 310 2.0 8.0 0.00 0.00 0.00 55 1015.2
20191112201939 62 311 2.0 7.0 0.00 0.00 0.00 54 1015.1
20191112201039 62 306 3.0 7.0 0.00 0.00 0.00 52 1015.0
20191112200139 62 307 3.0 8.0 0.00 0.00 0.00 52 1014.9
20191112195239 62 308 4.0 11.0 0.00 0.00 0.00 51 1015.0
20191112194339 62 323 4.0 11.0 0.00 0.00 0.00 51 1014.9
20191112193439 62 321 5.0 11.0 0.00 0.00 0.00 50 1015.0
20191112192539 63 321 5.0 11.0 0.00 0.00 0.00 50 1015.1
20191112191639 63 326 5.0 10.0 0.00 0.00 0.00 49 1014.9
20191112190739 63 328 4.0 10.0 0.00 0.00 0.00 49 1014.9
20191112185839 64 329 5.0 9.0 0.00 0.00 0.00 48 1014.9
20191112184939 64 339 4.0 9.0 0.00 0.00 0.00 48 1015.0
20191112184039 64 335 3.0 8.0 0.00 0.00 0.00 48 1014.8
20191112183139 65 319 4.0 9.0 0.00 0.00 0.00 47 1014.8
20191112182239 65 318 5.0 11.0 0.00 0.00 0.00 47 1014.7
20191112181339 65 332 5.0 10.0 0.00 0.00 0.00 47 1014.6
20191112180439 66 359 4.0 9.0 0.00 0.00 0.00 46 1014.5
20191112175539 66 24 3.0 8.0 0.00 0.00 0.00 44 1014.4
20191112174639 67 15 3.0 5.0 0.00 0.00 0.00 42 1014.4
20191112173739 67 8 3.0 5.0 0.00 0.00 0.00 44 1014.3
20191112172839 68 331 3.0 9.0 0.00 0.00 0.00 43 1014.2
20191112171939 68 350 2.0 8.0 0.00 0.00 0.00 42 1014.1
20191112171039 68 351 3.0 8.0 0.00 0.00 0.00 41 1014.1
20191112170139 68 339 3.0 9.0 0.00 0.00 0.00 41 1014.0
20191112165239 69 285 2.0 9.0 0.00 0.00 0.00 41 1013.9
20191112164339 69 307 2.0 4.0 0.00 0.00 0.00 42 1013.8
20191112163439 70 341 3.0 5.0 0.00 0.00 0.00 39 1013.8
20191112162539 70 335 2.0 4.0 0.00 0.00 0.00 39 1013.8
20191112161639 70 2 1.0 4.0 0.00 0.00 0.00 42 1013.9
20191112160739 71 353 0.0 2.0 0.00 0.00 0.00 40 1013.8
20191112155839 70 292 1.0 2.0 0.00 0.00 0.00 42 1013.7
20191112154939 69 189 2.0 4.0 0.00 0.00 0.00 43 1013.7
20191112154039 69 159 3.0 5.0 0.00 0.00 0.00 44 1013.8
20191112153139 69 174 2.0 5.0 0.00 0.00 0.00 47 1013.8
20191112152239 69 149 1.0 5.0 0.00 0.00 0.00 46 1013.9
20191112151339 69 197 2.0 4.0 0.00 0.00 0.00 47 1014.0
20191112150439 69 145 2.0 9.0 0.00 0.00 0.00 47 1014.0
20191112145539 70 171 2.0 6.0 0.00 0.00 0.00 44 1014.0
20191112144639 70 193 2.0 6.0 0.00 0.00 0.00 43 1014.0
20191112143739 70 225 2.0 6.0 0.00 0.00 0.00 43 1014.1
20191112142839 70 199 2.0 5.0 0.00 0.00 0.00 44 1014.2
20191112141939 69 184 2.0 4.0 0.00 0.00 0.00 43 1014.2
20191112141039 69 212 1.0 5.0 0.00 0.00 0.00 43 1014.2
20191112140139 69 203 2.0 5.0 0.00 0.00 0.00 41 1014.4
20191112135238 68 214 3.0 6.0 0.00 0.00 0.00 42 1014.4
20191112134338 68 228 3.0 7.0 0.00 0.00 0.00 43 1014.5
20191112133438 68 213 2.0 6.0 0.00 0.00 0.00 44 1014.8
20191112132538 67 262 2.0 7.0 0.00 0.00 0.00 46 1015.1
20191112131638 67 267 2.0 7.0 0.00 0.00 0.00 47 1015.2
20191112130738 66 251 2.0 5.0 0.00 0.00 0.00 49 1015.3
20191112125838 66 235 1.0 4.0 0.00 0.00 0.00 49 1015.4
20191112124939 65 245 2.0 3.0 0.00 0.00 0.00 51 1015.4
20191112124038 65 235 1.0 6.0 0.00 0.00 0.00 50 1015.5
20191112123138 66 149 1.0 5.0 0.00 0.00 0.00 52 1015.5
20191112122238 65 148 1.0 3.0 0.00 0.00 0.00 54 1015.6
20191112121338 64 140 2.0 6.0 0.00 0.00 0.00 56 1015.8
20191112120438 64 129 2.0 7.0 0.00 0.00 0.00 58 1015.8
20191112115538 63 181 2.0 5.0 0.00 0.00 0.00 58 1016.0
20191112114638 63 223 2.0 4.0 0.00 0.00 0.00 61 1016.2
20191112113738 62 285 1.0 4.0 0.00 0.00 0.00 62 1016.6
20191112112838 62 330 2.0 4.0 0.00 0.00 0.00 63 1016.8
20191112111938 61 337 2.0 5.0 0.00 0.00 0.00 62 1016.9
20191112111038 62 21 1.0 6.0 0.00 0.00 0.00 63 1016.9
20191112110138 61 69 1.0 5.0 0.00 0.00 0.00 64 1017.0
20191112105238 61 191 1.0 2.0 0.00 0.00 0.00 65 1017.0
20191112104338 61 165 1.0 5.0 0.00 0.00 0.00 66 1016.9
20191112103438 60 310 1.0 3.0 0.00 0.00 0.00 69 1016.7
20191112102538 59 358 2.0 5.0 0.00 0.00 0.00 69 1016.7
20191112101638 59 351 2.0 4.0 0.00 0.00 0.00 69 1016.7
20191112100738 58 3 2.0 5.0 0.00 0.00 0.00 70 1016.6
20191112095838 58 315 2.0 4.0 0.00 0.00 0.00 71 1016.6
20191112094938 58 359 2.0 4.0 0.00 0.00 0.00 71 1016.9
20191112094038 58 22 1.0 4.0 0.00 0.00 0.00 70 1017.0
20191112093138 58 356 0.0 4.0 0.00 0.00 0.00 71 1016.7
20191112092238 57 16 1.0 3.0 0.00 0.00 0.00 73 1016.6
20191112091338 56 349 2.0 4.0 0.00 0.00 0.00 74 1016.6
20191112090438 56 356 2.0 4.0 0.00 0.00 0.00 74 1016.7
20191112085538 56 12 1.0 6.0 0.00 0.00 0.00 75 1016.8
20191112084638 55 328 2.0 4.0 0.00 0.00 0.00 76 1016.7
20191112083738 55 329 2.0 4.0 0.00 0.00 0.00 76 1016.8
20191112082838 55 341 1.0 4.0 0.00 0.00 0.00 76 1016.7
20191112081938 55 335 1.0 3.0 0.00 0.00 0.00 77 1016.5
20191112081038 55 330 0.0 3.0 0.00 0.00 0.00 78 1016.3
20191112080138 54 349 0.0 1.0 0.00 0.00 0.00 79 1016.2
20191112075238 54 349 0.0 1.0 0.00 0.00 0.00 79 1015.9
20191112074338 54 350 1.0 2.0 0.00 0.00 0.00 79 1015.8
20191112073438 54 3 2.0 4.0 0.00 0.00 0.00 80 1015.9
20191112072538 54 15 1.0 3.0 0.00 0.00 0.00 79 1015.9
20191112071638 54 35 2.0 4.0 0.00 0.00 0.00 80 1015.7
20191112070738 53 43 1.0 4.0 0.00 0.00 0.00 80 1015.5
20191112065837 53 49 1.0 3.0 0.00 0.00 0.00 80 1015.4
20191112064937 53 358 2.0 3.0 0.00 0.00 0.00 81 1015.3
20191112064037 53 19 3.0 5.0 0.00 0.00 0.00 81 1015.3
20191112063137 53 4 3.0 5.0 0.00 0.00 0.00 82 1015.2
20191112062237 54 339 2.0 4.0 0.00 0.00 0.00 82 1015.2
20191112061337 54 332 2.0 3.0 0.00 0.00 0.00 82 1015.1
20191112060437 54 343 2.0 4.0 0.00 0.00 0.00 82 1014.8
20191112055537 54 354 0.0 4.0 0.00 0.00 0.00 82 1014.8
20191112054637 54 326 0.0 2.0 0.00 0.00 0.00 83 1014.8